This demonstration page uses our WeatherBlox Daily Observations layout. Learn more.

Left ArrowRight Arrow

Hourly Observations for July 16, 2018

Temp ( °F °C ) Dew Point ( °F °C ) Humidity (%) Winds ( mph kmh ) Pressure ( in mb ) Visibility ( mi km ) Precip ( " mm )
12:53 am 00:53 Partly Cloudy 75 23.9 68 20 79 79 Calm 29.92 1013 10 16 0.00 0.00
1:53 am 01:53 Clear 75 23.9 70 21.1 84 84 E 3 6 29.91 1013 10 16 0.00 0.00
2:53 am 02:53 Clear 74 23.3 70 21.1 88 88 Calm 29.91 1013 10 16 0.00 0.00
3:53 am 03:53 Clear 74 23.3 69 20.6 85 85 ESE 7 11 29.91 1013 10 16 0.00 0.00
4:53 am 04:53 Clear 73 22.8 70 21.1 90 90 ESE 3 6 29.90 1013 10 16 0.00 0.00
5:53 am 05:53 Clear 72 22.2 69 20.6 91 91 NNE 3 6 29.90 1013 10 16 0.00 0.00
6:53 am 06:53 Clear 71 21.7 69 20.6 94 94 ENE 3 6 29.91 1013 10 16 0.00 0.00
7:53 am 07:53 Sunny 74 23.3 69 20.6 85 85 NE 3 6 29.93 1014 10 16 0.00 0.00
8:53 am 08:53 Sunny 79 26.1 67 19.4 67 67 ESE 5 7 29.95 1014 10 16 0.00 0.00
9:53 am 09:53 Sunny 82 27.8 65 18.3 56 56 ESE 8 13 29.96 1015 10 16 0.00 0.00
10:53 am 10:53 Sunny 85 29.4 64 17.8 50 50 ESE 5 7 29.96 1015 10 16 0.00 0.00
11:53 am 11:53 Sunny 87 30.6 64 17.8 46 46 VRB 7 11 29.96 1015 10 16 0.00 0.00
12:53 pm 12:53 Sunny 91 32.8 63 17.2 39 39 E 8 13 29.96 1014 10 16 0.00 0.00
1:53 pm 13:53 Mostly Sunny 94 34.4 60 15.6 32 32 SE 12 19 29.93 1014 10 16 0.00 0.00
2:53 pm 14:53 Mostly Sunny 95 35 59 15 30 30 S 10 17 29.91 1013 10 16 0.00 0.00
3:53 pm 15:53 Mostly Sunny 96 35.6 59 15 29 29 SE 16 26 29.88 1012 10 16 0.00 0.00
4:53 pm 16:53 Partly Cloudy 96 35.6 57 13.9 27 27 S 15 24 29.85 1011 10 16 0.00 0.00
5:53 pm 17:53 Sunny 96 35.6 56 13.3 26 26 SE 12 19 29.84 1010 10 16 0.00 0.00
6:53 pm 18:53 Sunny 96 35.6 53 11.7 23 23 SE 14 22 29.83 1010 10 16 0.00 0.00
7:53 pm 19:53 Sunny 94 34.4 53 11.7 25 25 SE 9 15 29.83 1010 10 16 0.00 0.00
8:53 pm 20:53 Sunny 91 32.8 53 11.7 27 27 SSE 12 19 29.85 1011 10 16 0.00 0.00
9:53 pm 21:53 Clear 86 30 54 12.2 33 33 SE 8 13 29.87 1012 10 16 0.00 0.00
10:53 pm 22:53 Clear 84 28.9 54 12.2 36 36 SE 8 13 29.90 1013 10 16 0.00 0.00
11:53 pm 23:53 Clear 82 27.8 55 12.8 40 40 SSE 8 13 29.93 1013 10 16 0.00 0.00

Powered by AerisWeather